Retour au catalogue

CZ-6A DEB

ActifPO
NORAD 60861·DEBRIS·🇨🇳 China

Lancé Aug 6, 2024 depuis Taiyuan Satellite Launch Center

Loading…

Prochains Passages (prochaines 24 heures)

TLE

FraisSource: Space-Track

Époque: Sep 14, 2026, 23:01 UTC

1 60861U 24140JQ  26257.95952534  .00123247  00000-0  30302-2 0  9995
2 60861  89.0538 260.1808 0051903 100.2622 260.4492 15.38780524113995

Suivez CZ-6A DEB en temps réel avec AllMySat

Download on the App Store